DW8107 Weather Reports


time (UTC)temp
C
wind
direction
speed
KPH
gust
KPH
rain 1hr
cm
rain 24hr
cm
rain mn
cm
humidity
%
barometer
mb
20190217184616 28 172 1.6 8.0 0.00 0.00 0.00 63 1013.4
20190217183157 28 117 1.6 9.7 0.00 0.00 0.00 65 1013.4
20190217181629 28 130 1.6 12.9 0.00 0.00 0.00 63 1013.5
20190217180115 28 206 0.0 9.7 0.00 0.00 0.00 64 1013.7
20190217174624 27 128 3.2 14.5 0.00 0.00 0.00 65 1014.0
20190217173122 28 153 0.0 6.4 0.00 0.00 0.00 63 1014.2
20190217171621 28 297 1.6 9.7 0.00 0.00 0.00 63 1014.3
20190217170052 28 88 4.8 8.0 0.00 0.00 0.00 63 1014.5
20190217164629 28 106 3.2 8.0 0.00 0.00 0.00 62 1014.7
20190217163128 27 198 0.0 6.4 0.00 0.00 0.00 65 1015.0
20190217161614 27 169 1.6 9.7 0.00 0.00 0.00 63 1015.1
20190217160113 27 212 0.0 4.8 0.00 0.00 0.00 63 1015.1
20190217154540 27 262 1.6 8.0 0.00 0.00 0.00 65 1015.1
20190217153036 26 84 0.0 4.8 0.00 0.00 0.00 70 1015.1
20190217151619 25 155 0.0 6.4 0.00 0.00 0.00 73 1015.1
20190217150024 25 134 0.0 4.8 0.00 0.00 0.00 77 1015.1
20190217144511 23 121 0.0 9.7 0.00 0.00 0.00 81 1015.3
20190217143011 23 143 0.0 6.4 0.00 0.00 0.00 84 1015.1
20190217141504 22 54 0.0 4.8 0.00 0.00 0.00 88 1015.1
20190217140213 21 132 0.0 4.8 0.00 0.00 0.00 91 1015.1
20190217134632 20 91 0.0 4.8 0.00 0.00 0.00 92 1014.9
20190217133146 18 113 0.0 0.0 0.00 0.00 0.00 89 1014.7
20190217131629 18 80 0.0 0.0 0.00 0.00 0.00 88 1014.5
20190217130121 17 19 0.0 0.0 0.00 0.00 0.00 88 1014.4
20190217124625 17 19 0.0 1.6 0.00 0.00 0.00 88 1014.3
20190217123153 17 19 0.0 0.0 0.00 0.00 0.00 88 1014.3
20190217121549 16 19 0.0 0.0 0.00 0.00 0.00 89 1014.2
20190217120106 16 19 0.0 0.0 0.00 0.00 0.00 89 1014.1
20190217114648 16 19 0.0 0.0 0.00 0.00 0.00 90 1013.9
20190217113129 16 19 0.0 0.0 0.00 0.00 0.00 90 1013.8
20190217111549 16 19 0.0 0.0 0.00 0.00 0.00 90 1013.7
20190217110127 16 19 0.0 0.0 0.00 0.00 0.00 91 1013.6
20190217104551 17 19 0.0 0.0 0.00 0.00 0.00 91 1013.3
20190217103050 17 19 0.0 0.0 0.00 0.00 0.00 91 1013.2
20190217101548 17 19 0.0 0.0 0.00 0.00 0.00 91 1012.9
20190217100109 17 19 0.0 0.0 0.00 0.00 0.00 91 1012.8
20190217094546 17 19 0.0 0.0 0.00 0.00 0.00 91 1012.6
20190217093041 17 19 0.0 0.0 0.00 0.00 0.00 92 1012.6
20190217091529 17 19 0.0 0.0 0.00 0.00 0.00 91 1012.6
20190217090027 17 19 0.0 0.0 0.00 0.00 0.00 92 1012.5
20190217084514 17 19 0.0 0.0 0.00 0.00 0.00 92 1012.3
20190217083018 17 9 0.0 0.0 0.00 0.00 0.00 92 1012.2
20190217081520 17 9 0.0 0.0 0.00 0.00 0.00 92 1012.1
20190217080049 17 10 0.0 0.0 0.00 0.00 0.00 92 1012.1
20190217074508 17 9 0.0 0.0 0.00 0.00 0.00 93 1012.2
20190217073009 17 9 0.0 0.0 0.00 0.00 0.00 93 1012.2
20190217071506 17 9 0.0 0.0 0.00 0.00 0.00 93 1012.2
20190217070004 17 9 0.0 0.0 0.00 0.00 0.00 93 1012.3
20190217064503 17 8 0.0 0.0 0.00 0.00 0.00 92 1012.3
20190217063001 17 9 0.0 0.0 0.00 0.00 0.00 92 1012.3
20190217061758 17 9 0.0 0.0 0.00 0.00 0.00 92 1012.3
20190217060214 17 9 0.0 0.0 0.00 0.00 0.00 92 1012.3
20190217054635 18 9 0.0 0.0 0.00 0.00 0.00 92 1012.4
20190217053132 18 9 0.0 0.0 0.00 0.00 0.00 91 1012.3
20190217051654 18 9 0.0 0.0 0.00 0.00 0.00 91 1012.2
20190217050126 18 9 0.0 0.0 0.00 0.00 0.00 91 1012.3
20190217044705 18 9 0.0 0.0 0.00 0.00 0.00 90 1012.2
20190217043203 18 9 0.0 0.0 0.00 0.00 0.00 90 1012.4
20190217041641 18 9 0.0 0.0 0.00 0.00 0.00 90 1012.4
20190217040144 18 9 0.0 0.0 0.00 0.00 0.00 90 1012.4
20190217034622 18 9 0.0 0.0 0.00 0.00 0.00 89 1012.6
20190217033121 18 9 0.0 1.6 0.00 0.00 0.00 89 1012.6
20190217031628 18 193 0.0 0.0 0.00 0.00 0.00 90 1012.6
20190217030112 18 193 0.0 0.0 0.00 0.00 0.00 91 1012.6
20190217024706 19 193 0.0 0.0 0.00 0.00 0.00 91 1012.5
20190217023113 19 193 0.0 0.0 0.00 0.00 0.00 91 1012.4
20190217021620 19 193 0.0 0.0 0.00 0.00 0.00 91 1012.4
20190217020137 20 193 0.0 0.0 0.00 0.00 0.00 90 1012.3
20190217014618 20 193 0.0 0.0 0.00 0.00 0.00 90 1012.2
20190217013138 20 193 0.0 0.0 0.00 0.00 0.00 89 1012.1
20190217011612 20 193 0.0 0.0 0.00 0.00 0.00 89 1011.9
20190217010153 21 193 0.0 1.6 0.00 0.00 0.00 88 1011.8
20190217004623 21 210 0.0 1.6 0.00 0.00 0.00 87 1011.8
20190217003047 21 201 0.0 1.6 0.00 0.00 0.00 86 1011.6
20190217001712 22 111 0.0 3.2 0.00 0.00 0.00 85 1011.4
20190217000124 22 151 0.0 3.2 0.00 0.00 0.00 85 1011.4
20190216234548 22 143 0.0 1.6 0.00 0.00 0.00 85 1011.3
20190216233116 22 226 0.0 4.8 0.00 0.00 0.00 84 1011.1
20190216231714 22 210 0.0 4.8 0.00 0.00 0.00 83 1011.1
20190216230054 23 160 0.0 1.6 0.00 0.00 0.00 82 1011.0
20190216224555 23 205 0.0 4.8 0.00 0.00 0.00 81 1010.9
20190216223119 23 134 0.0 3.2 0.00 0.00 0.00 81 1010.7
20190216221609 23 197 0.0 0.0 0.00 0.00 0.00 80 1010.6
20190216220121 23 158 0.0 8.0 0.00 0.00 0.00 78 1010.5
20190216214558 24 156 0.0 6.4 0.00 0.00 0.00 77 1010.5
20190216213130 24 215 0.0 4.8 0.00 0.00 0.00 76 1010.5
20190216211629 25 231 0.0 9.7 0.00 0.00 0.00 75 1010.3
20190216210115 24 203 1.6 9.7 0.00 0.00 0.00 76 1010.3
20190216204605 25 108 0.0 4.8 0.00 0.00 0.00 74 1010.2
20190216203058 24 139 1.6 9.7 0.00 0.00 0.00 74 1010.1
20190216201558 25 210 0.0 8.0 0.00 0.00 0.00 76 1010.3
20190216200107 25 214 1.6 9.7 0.00 0.00 0.00 74 1010.2
20190216194645 25 174 0.0 3.2 0.00 0.00 0.00 74 1010.4
20190216193054 25 150 0.0 11.3 0.00 0.00 0.00 71 1010.5
20190216191541 26 173 0.0 9.7 0.00 0.00 0.00 70 1010.5
20190216190027 26 283 0.0 6.4 0.00 0.00 0.00 71 1010.8